Back to catalog

STARLINK-4622

AliveCommunicationsSSO
NORAD 53648·PAYLOAD·🇺🇸 United States

Launched Aug 31, 2022 from Vandenberg Space Force Base

Loading…

Next Passes (next 24 hours)

TLE

FreshSource: CelesTrak SupGP

Epoch: Sep 14, 2026, 21:50 UTC

1 53648C 22105A   26257.91020833  .00003581  00000+0  24869-3 0  2579
2 53648  97.2844 132.0550 0001804  87.8229 132.9008 15.05646291    10

Track STARLINK-4622 in real time with AllMySat

Download on the App Store